| time (UTC) | temp C | wind direction | speed KPH | gust KPH | rain 1hr cm | rain 24hr cm | rain mn cm | humidity % | barometer mb |
| 20260502130600 | 13 | 5 | 11.3 | 29.0 | 0.00 | 5.71 | 0.00 | 86 | 1019.5 |
| 20260502130107 | 13 | 321 | 16.1 | 30.6 | 0.00 | 5.71 | 0.00 | 87 | 1019.4 |
| 20260502123555 | 12 | 9 | 16.1 | 25.7 | 0.00 | 5.71 | 0.00 | 89 | 1019.2 |
| 20260502123055 | 12 | 321 | 14.5 | 24.1 | 0.00 | 5.71 | 0.00 | 90 | 1019.1 |
| 20260502122556 | 12 | 16 | 11.3 | 24.1 | 0.00 | 5.71 | 0.00 | 91 | 1019.0 |
| 20260502122055 | 12 | 302 | 16.1 | 24.1 | 0.00 | 5.71 | 0.00 | 90 | 1018.8 |
| 20260502121605 | 12 | 360 | 14.5 | 24.1 | 0.00 | 5.71 | 0.00 | 90 | 1018.7 |
| 20260502121055 | 12 | 309 | 12.9 | 24.1 | 0.00 | 5.71 | 0.00 | 91 | 1018.7 |
| 20260502120555 | 12 | 360 | 12.9 | 20.9 | 0.00 | 5.71 | 0.00 | 91 | 1018.7 |
| 20260502120115 | 12 | 24 | 8.0 | 19.3 | 0.00 | 5.71 | 0.00 | 91 | 1018.6 |
| 20260502115558 | 12 | 321 | 11.3 | 19.3 | 0.00 | 5.71 | 0.00 | 91 | 1018.6 |
| 20260502115056 | 12 | 13 | 9.7 | 19.3 | 0.00 | 5.71 | 0.00 | 91 | 1018.5 |
| 20260502114615 | 12 | 22 | 9.7 | 19.3 | 0.00 | 5.71 | 0.00 | 91 | 1018.6 |
| 20260502114056 | 12 | 36 | 9.7 | 19.3 | 0.00 | 5.71 | 0.00 | 91 | 1018.5 |
| 20260502113556 | 12 | 13 | 11.3 | 22.5 | 0.00 | 5.71 | 0.00 | 91 | 1018.4 |
| 20260502113113 | 12 | 19 | 9.7 | 22.5 | 0.00 | 5.71 | 0.00 | 91 | 1018.3 |
| 20260502112555 | 12 | 5 | 11.3 | 22.5 | 0.00 | 5.71 | 0.00 | 91 | 1018.2 |
| 20260502112055 | 12 | 5 | 12.9 | 20.9 | 0.00 | 5.71 | 0.00 | 91 | 1018.1 |
| 20260502111604 | 12 | 321 | 12.9 | 25.7 | 0.00 | 5.71 | 0.00 | 91 | 1017.9 |
| 20260502111058 | 12 | 5 | 11.3 | 25.7 | 0.00 | 5.71 | 0.00 | 91 | 1017.9 |
| 20260502110555 | 12 | 5 | 16.1 | 25.7 | 0.00 | 5.71 | 0.00 | 91 | 1017.8 |
| 20260502110106 | 12 | 321 | 14.5 | 22.5 | 0.00 | 5.71 | 0.00 | 91 | 1017.8 |
| 20260502105555 | 12 | 311 | 14.5 | 22.5 | 0.00 | 5.71 | 0.00 | 91 | 1017.7 |
| 20260502105055 | 13 | 5 | 11.3 | 24.1 | 0.00 | 5.71 | 0.00 | 91 | 1017.6 |
| 20260502104603 | 13 | 302 | 11.3 | 24.1 | 0.00 | 5.71 | 0.00 | 91 | 1017.5 |
| 20260502104057 | 13 | 321 | 12.9 | 24.1 | 0.00 | 5.71 | 0.00 | 91 | 1017.6 |
| 20260502103552 | 13 | 321 | 11.3 | 19.3 | 0.00 | 5.71 | 0.00 | 91 | 1017.5 |
| 20260502103114 | 13 | 41 | 9.7 | 19.3 | 0.00 | 5.71 | 0.00 | 92 | 1017.3 |
| 20260502102555 | 13 | 12 | 11.3 | 19.3 | 0.00 | 5.71 | 0.00 | 92 | 1017.2 |
| 20260502102056 | 13 | 320 | 9.7 | 19.3 | 0.00 | 5.71 | 0.00 | 92 | 1017.1 |
| 20260502101608 | 13 | 24 | 9.7 | 19.3 | 0.00 | 5.71 | 0.00 | 92 | 1017.0 |
| 20260502101052 | 13 | 319 | 8.0 | 16.1 | 0.00 | 5.71 | 0.00 | 92 | 1017.0 |
| 20260502100552 | 13 | 321 | 8.0 | 14.5 | 0.00 | 5.71 | 0.00 | 92 | 1016.9 |
| 20260502091051 | 13 | 5 | 9.7 | 27.4 | 0.00 | 5.71 | 0.00 | 92 | 1016.5 |
| 20260502090552 | 13 | 9 | 8.0 | 19.3 | 0.00 | 5.71 | 0.00 | 92 | 1016.4 |
| 20260502090108 | 13 | 15 | 8.0 | 19.3 | 0.00 | 5.71 | 0.00 | 92 | 1016.4 |
| 20260502071052 | 13 | 32 | 9.7 | 22.5 | 0.00 | 5.71 | 0.00 | 92 | 1015.7 |
| 20260502070556 | 13 | 42 | 12.9 | 22.5 | 0.00 | 5.71 | 0.00 | 92 | 1015.9 |
| 20260502070101 | 13 | 19 | 14.5 | 27.4 | 0.00 | 5.71 | 0.00 | 92 | 1015.7 |
| 20260502065553 | 13 | 47 | 11.3 | 27.4 | 0.00 | 5.71 | 0.00 | 92 | 1015.8 |
| 20260502065054 | 13 | 5 | 16.1 | 27.4 | 0.00 | 5.71 | 0.00 | 91 | 1015.7 |
| 20260502064600 | 13 | 22 | 16.1 | 27.4 | 0.00 | 5.71 | 0.00 | 91 | 1015.7 |
| 20260502064052 | 13 | 311 | 17.7 | 27.4 | 0.00 | 5.71 | 0.00 | 91 | 1015.6 |
| 20260502063552 | 13 | 26 | 16.1 | 30.6 | 0.00 | 5.71 | 0.00 | 91 | 1015.8 |
| 20260502063124 | 13 | 16 | 14.5 | 30.6 | 0.00 | 5.71 | 0.00 | 91 | 1015.8 |
| 20260502062556 | 13 | 11 | 17.7 | 32.2 | 0.00 | 5.71 | 0.00 | 91 | 1015.7 |
| 20260502062052 | 13 | 21 | 17.7 | 32.2 | 0.00 | 5.71 | 0.00 | 91 | 1015.8 |
| 20260502061555 | 13 | 13 | 17.7 | 32.2 | 0.00 | 5.71 | 0.00 | 91 | 1015.8 |
| 20260502061056 | 13 | 23 | 12.9 | 24.1 | 0.00 | 5.71 | 0.00 | 91 | 1015.8 |
| 20260502060553 | 13 | 22 | 12.9 | 24.1 | 0.00 | 5.71 | 0.00 | 92 | 1015.8 |
| 20260502060107 | 13 | 9 | 14.5 | 33.8 | 0.00 | 5.71 | 0.00 | 91 | 1015.8 |
| 20260502055556 | 13 | 321 | 17.7 | 33.8 | 0.00 | 5.71 | 0.00 | 91 | 1015.9 |
| 20260502055056 | 13 | 318 | 20.9 | 33.8 | 0.00 | 5.71 | 0.00 | 91 | 1015.8 |
| 20260502054620 | 13 | 5 | 20.9 | 30.6 | 0.00 | 5.71 | 0.00 | 91 | 1015.7 |
| 20260502054055 | 13 | 9 | 19.3 | 30.6 | 0.00 | 5.71 | 0.00 | 91 | 1015.6 |
| 20260502053552 | 13 | 24 | 14.5 | 27.4 | 0.00 | 5.71 | 0.00 | 92 | 1015.6 |
| 20260502053108 | 14 | 360 | 17.7 | 29.0 | 0.00 | 5.71 | 0.00 | 92 | 1015.5 |
| 20260502052552 | 14 | 321 | 14.5 | 29.0 | 0.00 | 5.71 | 0.00 | 91 | 1015.5 |
| 20260502052053 | 14 | 5 | 17.7 | 29.0 | 0.00 | 5.71 | 0.00 | 92 | 1015.4 |
| 20260502051556 | 14 | 308 | 12.9 | 32.2 | 0.00 | 5.71 | 0.00 | 92 | 1015.3 |
| 20260502051052 | 14 | 22 | 19.3 | 32.2 | 0.00 | 5.71 | 0.00 | 92 | 1015.4 |
| 20260502050555 | 14 | 25 | 17.7 | 29.0 | 0.00 | 5.71 | 0.00 | 91 | 1015.4 |
| 20260502050057 | 14 | 5 | 17.7 | 27.4 | 0.00 | 5.71 | 0.00 | 92 | 1015.3 |
| 20260502045554 | 14 | 22 | 11.3 | 27.4 | 0.00 | 5.71 | 5.71 | 92 | 1015.2 |
| 20260502045052 | 14 | 5 | 14.5 | 25.7 | 0.00 | 5.71 | 5.71 | 92 | 1015.1 |
| 20260502044553 | 14 | 5 | 16.1 | 37.0 | 0.00 | 5.71 | 5.71 | 92 | 1015.1 |
| 20260502044055 | 14 | 44 | 17.7 | 37.0 | 0.00 | 5.71 | 5.71 | 91 | 1015.1 |
| 20260502043555 | 14 | 5 | 20.9 | 40.2 | 0.00 | 5.71 | 5.71 | 91 | 1015.0 |
| 20260502043107 | 14 | 15 | 20.9 | 40.2 | 0.00 | 5.71 | 5.71 | 91 | 1015.0 |
| 20260502042552 | 14 | 11 | 19.3 | 40.2 | 0.00 | 5.71 | 5.71 | 91 | 1014.9 |
| 20260502042053 | 15 | 35 | 20.9 | 38.6 | 0.00 | 5.71 | 5.71 | 92 | 1014.9 |
| 20260502041556 | 15 | 24 | 14.5 | 32.2 | 0.00 | 5.71 | 5.71 | 92 | 1014.7 |
| 20260502041053 | 15 | 20 | 14.5 | 32.2 | 0.00 | 5.71 | 5.71 | 92 | 1014.7 |
| 20260502040552 | 15 | 321 | 17.7 | 29.0 | 0.00 | 5.71 | 5.71 | 92 | 1014.7 |
| 20260502035552 | 15 | 9 | 19.3 | 33.8 | 0.00 | 5.71 | 5.71 | 91 | 1014.7 |
| 20260502035052 | 15 | 5 | 20.9 | 38.6 | 0.03 | 5.71 | 5.71 | 91 | 1014.7 |
| 20260502034600 | 15 | 29 | 22.5 | 38.6 | 0.03 | 5.71 | 5.71 | 90 | 1014.7 |
| 20260502034053 | 15 | 30 | 22.5 | 38.6 | 0.03 | 5.71 | 5.71 | 91 | 1014.5 |
| 20260502033552 | 15 | 313 | 24.1 | 38.6 | 0.03 | 5.71 | 5.71 | 91 | 1014.5 |
| 20260502033057 | 15 | 36 | 22.5 | 38.6 | 0.03 | 5.71 | 5.71 | 91 | 1014.4 |
| 20260502032552 | 15 | 24 | 24.1 | 38.6 | 0.03 | 5.71 | 5.71 | 92 | 1014.4 |
| 20260502032052 | 15 | 38 | 16.1 | 27.4 | 0.03 | 5.71 | 5.71 | 93 | 1014.3 |
| 20260502031555 | 15 | 29 | 17.7 | 29.0 | 0.03 | 5.71 | 5.71 | 93 | 1014.1 |
| 20260502031052 | 15 | 317 | 12.9 | 29.0 | 0.03 | 5.71 | 5.71 | 92 | 1014.1 |
| 20260502030551 | 15 | 34 | 14.5 | 32.2 | 0.03 | 5.71 | 5.71 | 92 | 1014.0 |
| 20260502030106 | 15 | 32 | 19.3 | 33.8 | 0.03 | 5.71 | 5.71 | 93 | 1014.0 |
| 20260502025552 | 15 | 18 | 17.7 | 35.4 | 0.03 | 5.71 | 5.71 | 93 | 1014.0 |
| 20260502025055 | 15 | 25 | 19.3 | 35.4 | 0.00 | 5.69 | 5.69 | 93 | 1014.0 |
| 20260502024554 | 15 | 312 | 16.1 | 29.0 | 0.00 | 5.69 | 5.69 | 94 | 1013.8 |
| 20260502024055 | 15 | 13 | 14.5 | 25.7 | 0.00 | 5.69 | 5.69 | 94 | 1013.7 |
| 20260502023553 | 15 | 320 | 16.1 | 25.7 | 0.00 | 5.69 | 5.69 | 94 | 1013.5 |
| 20260502023103 | 15 | 21 | 14.5 | 24.1 | 0.00 | 5.69 | 5.69 | 94 | 1013.5 |
| 20260502022553 | 15 | 5 | 12.9 | 25.7 | 0.00 | 5.69 | 5.69 | 94 | 1013.5 |
| 20260502022054 | 15 | 29 | 14.5 | 25.7 | 0.00 | 5.69 | 5.69 | 94 | 1013.3 |
| 20260502021557 | 15 | 320 | 14.5 | 22.5 | 0.00 | 5.69 | 5.69 | 94 | 1013.1 |
| 20260502021052 | 15 | 14 | 14.5 | 25.7 | 0.00 | 5.69 | 5.69 | 94 | 1012.9 |
| 20260502020627 | 15 | 9 | 14.5 | 27.4 | 0.00 | 5.69 | 5.69 | 94 | 1012.9 |
| 20260502020056 | 15 | 35 | 14.5 | 27.4 | 0.00 | 5.69 | 5.69 | 94 | 1012.8 |
| 20260502015553 | 15 | 26 | 12.9 | 27.4 | 0.00 | 5.69 | 5.69 | 94 | 1012.6 |
| 20260502015055 | 15 | 51 | 17.7 | 27.4 | 0.00 | 5.69 | 5.69 | 94 | 1012.4 |
| 20260502014557 | 15 | 29 | 16.1 | 29.0 | 0.00 | 5.69 | 5.69 | 94 | 1012.4 |
| 20260502014054 | 15 | 23 | 16.1 | 29.0 | 0.00 | 5.69 | 5.69 | 94 | 1012.3 |
| 20260502013554 | 15 | 15 | 16.1 | 29.0 | 0.00 | 5.69 | 5.69 | 94 | 1012.3 |
| 20260502013058 | 15 | 40 | 17.7 | 29.0 | 0.00 | 5.69 | 5.69 | 94 | 1012.0 |
| 20260502012556 | 15 | 29 | 19.3 | 29.0 | 0.00 | 5.69 | 5.69 | 94 | 1012.1 |
| 20260502012052 | 15 | 5 | 16.1 | 29.0 | 0.03 | 5.69 | 5.69 | 94 | 1011.8 |
| 20260502011555 | 15 | 5 | 12.9 | 25.7 | 0.03 | 5.69 | 5.69 | 94 | 1011.9 |
| 20260502011052 | 15 | 25 | 14.5 | 30.6 | 0.03 | 5.69 | 5.69 | 94 | 1011.7 |
| 20260502010556 | 15 | 17 | 17.7 | 37.0 | 0.05 | 5.69 | 5.69 | 94 | 1011.6 |
| 20260502010058 | 15 | 34 | 20.9 | 37.0 | 0.05 | 5.69 | 5.69 | 94 | 1011.3 |
| 20260502005552 | 15 | 309 | 20.9 | 35.4 | 0.05 | 5.69 | 5.69 | 94 | 1011.5 |
| 20260502005059 | 15 | 12 | 19.3 | 35.4 | 0.05 | 5.69 | 5.69 | 94 | 1011.1 |
| 20260502004557 | 15 | 9 | 20.9 | 35.4 | 0.05 | 5.69 | 5.69 | 94 | 1011.1 |
| 20260502004051 | 16 | 17 | 19.3 | 35.4 | 0.05 | 5.69 | 5.69 | 94 | 1011.2 |
| 20260502003555 | 16 | 11 | 24.1 | 35.4 | 0.05 | 5.69 | 5.69 | 94 | 1011.1 |
| 20260502003057 | 16 | 42 | 20.9 | 32.2 | 0.08 | 5.69 | 5.69 | 95 | 1010.8 |
| 20260502002553 | 16 | 22 | 17.7 | 37.0 | 0.08 | 5.69 | 5.69 | 95 | 1011.2 |
| 20260502002051 | 16 | 316 | 20.9 | 37.0 | 0.05 | 5.66 | 5.66 | 95 | 1011.1 |
| 20260502001556 | 16 | 23 | 22.5 | 38.6 | 0.05 | 5.66 | 5.66 | 94 | 1011.0 |
| 20260502001057 | 16 | 13 | 25.7 | 41.8 | 0.05 | 5.66 | 5.66 | 94 | 1010.8 |
| 20260502000555 | 16 | 317 | 22.5 | 41.8 | 0.08 | 5.64 | 5.64 | 94 | 1011.1 |
| 20260502000058 | 16 | 15 | 24.1 | 38.6 | 0.13 | 5.64 | 5.64 | 95 | 1011.7 |
| 20260501235552 | 16 | 5 | 22.5 | 37.0 | 0.18 | 5.64 | 5.64 | 95 | 1011.4 |
| 20260501235055 | 16 | 297 | 20.9 | 35.4 | 0.20 | 5.64 | 5.64 | 95 | 1011.6 |
| 20260501234559 | 16 | 320 | 24.1 | 40.2 | 0.23 | 5.64 | 5.64 | 95 | 1011.7 |
| 20260501234052 | 16 | 30 | 24.1 | 40.2 | 0.36 | 5.64 | 5.64 | 95 | 1011.2 |
| 20260501233552 | 16 | 360 | 22.5 | 35.4 | 0.56 | 5.64 | 5.64 | 95 | 1010.8 |
| 20260501233059 | 16 | 360 | 19.3 | 40.2 | 0.81 | 5.61 | 5.61 | 95 | 1010.6 |
| 20260501232555 | 16 | 5 | 20.9 | 40.2 | 1.32 | 5.61 | 5.61 | 95 | 1010.6 |
| 20260501232051 | 16 | 303 | 22.5 | 45.1 | 1.32 | 5.61 | 5.61 | 95 | 1010.7 |
| 20260501231557 | 16 | 302 | 24.1 | 46.7 | 1.32 | 5.61 | 5.61 | 95 | 1010.4 |
| 20260501231055 | 16 | 360 | 27.4 | 46.7 | 1.32 | 5.61 | 5.61 | 95 | 1010.2 |
| 20260501230552 | 16 | 320 | 20.9 | 43.5 | 1.30 | 5.56 | 5.56 | 95 | 1010.1 |
| 20260501230101 | 16 | 17 | 24.1 | 43.5 | 1.30 | 5.51 | 5.51 | 95 | 1009.9 |
| 20260501225552 | 16 | 9 | 24.1 | 38.6 | 1.24 | 5.46 | 5.46 | 95 | 1010.2 |
| 20260501225055 | 16 | 320 | 20.9 | 38.6 | 1.22 | 5.44 | 5.44 | 95 | 1010.1 |
| 20260501224555 | 16 | 316 | 22.5 | 38.6 | 1.22 | 5.41 | 5.41 | 94 | 1010.0 |
| 20260501224055 | 17 | 360 | 19.3 | 38.6 | 1.07 | 5.26 | 5.26 | 94 | 1009.9 |
| 20260501223554 | 17 | 11 | 22.5 | 38.6 | 0.86 | 5.05 | 5.05 | 94 | 1010.4 |
| 20260501223111 | 17 | 317 | 27.4 | 38.6 | 0.58 | 4.78 | 4.78 | 94 | 1009.5 |
| 20260501222555 | 17 | 306 | 20.9 | 30.6 | 0.08 | 4.27 | 4.27 | 94 | 1010.1 |
| 20260501222052 | 17 | 13 | 16.1 | 30.6 | 0.08 | 4.27 | 4.27 | 94 | 1009.1 |
| 20260501221556 | 17 | 40 | 14.5 | 30.6 | 0.08 | 4.27 | 4.27 | 94 | 1007.6 |
| 20260501221058 | 17 | 59 | 12.9 | 32.2 | 0.08 | 4.27 | 4.27 | 93 | 1007.2 |
| 20260501220552 | 17 | 31 | 17.7 | 32.2 | 0.05 | 4.24 | 4.24 | 93 | 1007.2 |
| 20260501220055 | 17 | 37 | 9.7 | 27.4 | 0.03 | 4.22 | 4.22 | 93 | 1007.4 |
| 20260501215555 | 17 | 42 | 12.9 | 27.4 | 0.03 | 4.22 | 4.22 | 93 | 1007.5 |
| 20260501215055 | 17 | 40 | 11.3 | 30.6 | 0.03 | 4.22 | 4.22 | 93 | 1007.7 |
| 20260501214556 | 17 | 29 | 12.9 | 30.6 | 0.00 | 4.19 | 4.19 | 93 | 1008.0 |
| 20260501214052 | 17 | 38 | 14.5 | 25.7 | 0.00 | 4.19 | 4.19 | 93 | 1008.0 |
| 20260501213551 | 17 | 53 | 9.7 | 25.7 | 0.00 | 4.19 | 4.19 | 93 | 1008.1 |
| 20260501213108 | 17 | 40 | 12.9 | 27.4 | 0.00 | 4.19 | 4.19 | 93 | 1008.0 |
| 20260501212554 | 17 | 26 | 16.1 | 27.4 | 0.00 | 4.19 | 4.19 | 93 | 1008.4 |
| 20260501212055 | 17 | 23 | 14.5 | 25.7 | 0.00 | 4.19 | 4.19 | 93 | 1008.1 |
| 20260501211559 | 17 | 28 | 14.5 | 25.7 | 0.00 | 4.19 | 4.19 | 93 | 1008.3 |
| 20260501211055 | 17 | 13 | 14.5 | 25.7 | 0.00 | 4.19 | 4.19 | 93 | 1008.2 |
| 20260501210554 | 17 | 34 | 11.3 | 24.1 | 0.00 | 4.19 | 4.19 | 93 | 1008.1 |
| 20260501210056 | 17 | 19 | 12.9 | 29.0 | 0.00 | 4.19 | 4.19 | 93 | 1008.2 |
| 20260501205622 | 17 | 54 | 12.9 | 29.0 | 0.00 | 4.19 | 4.19 | 93 | 1008.2 |
| 20260501205052 | 17 | 38 | 17.7 | 29.0 | 0.00 | 4.19 | 4.19 | 93 | 1008.3 |
| 20260501204609 | 17 | 20 | 17.7 | 32.2 | 0.00 | 4.19 | 4.19 | 94 | 1008.3 |
| 20260501204052 | 17 | 22 | 19.3 | 41.8 | 0.03 | 4.19 | 4.19 | 93 | 1008.4 |
| 20260501203552 | 18 | 40 | 24.1 | 41.8 | 0.03 | 4.19 | 4.19 | 93 | 1008.5 |
| 20260501203107 | 18 | 36 | 24.1 | 38.6 | 0.03 | 4.19 | 4.19 | 93 | 1008.4 |
| 20260501202555 | 18 | 36 | 24.1 | 38.6 | 0.05 | 4.19 | 4.19 | 94 | 1008.2 |
| 20260501202052 | 18 | 37 | 17.7 | 37.0 | 0.08 | 4.19 | 4.19 | 95 | 1008.1 |
| 20260501201556 | 18 | 54 | 19.3 | 37.0 | 0.13 | 4.19 | 4.19 | 96 | 1008.1 |
| 20260501201058 | 18 | 11 | 20.9 | 33.8 | 0.89 | 4.19 | 4.19 | 97 | 1008.1 |
| 20260501200551 | 18 | 13 | 20.9 | 40.2 | 2.51 | 4.19 | 4.19 | 96 | 1007.9 |
| 20260501200057 | 17 | 360 | 24.1 | 40.2 | 3.96 | 4.19 | 4.19 | 96 | 1008.1 |
| 20260501195552 | 17 | 304 | 22.5 | 38.6 | 3.99 | 4.19 | 4.19 | 96 | 1008.0 |
| 20260501195055 | 17 | 306 | 20.9 | 38.6 | 3.99 | 4.19 | 4.19 | 96 | 1008.0 |
| 20260501194600 | 17 | 5 | 24.1 | 40.2 | 3.99 | 4.19 | 4.19 | 96 | 1008.6 |
| 20260501194056 | 17 | 10 | 20.9 | 40.2 | 3.96 | 4.17 | 4.17 | 96 | 1008.3 |
| 20260501193556 | 17 | 320 | 27.4 | 40.2 | 3.99 | 4.17 | 4.17 | 96 | 1008.6 |
| 20260501193053 | 17 | 317 | 22.5 | 38.6 | 3.99 | 4.17 | 4.17 | 96 | 1008.5 |
| 20260501192555 | 17 | 318 | 19.3 | 38.6 | 3.96 | 4.14 | 4.14 | 96 | 1008.6 |
| 20260501192055 | 17 | 17 | 25.7 | 54.7 | 3.94 | 4.11 | 4.11 | 96 | 1007.9 |
| 20260501191555 | 17 | 47 | 24.1 | 54.7 | 3.89 | 4.06 | 4.06 | 96 | 1008.1 |
| 20260501191052 | 17 | 35 | 35.4 | 62.8 | 3.05 | 3.23 | 3.23 | 95 | 1006.5 |
| 20260501190554 | 17 | 44 | 35.4 | 62.8 | 1.40 | 1.57 | 1.57 | 94 | 1010.4 |
| 20260501190056 | 17 | 289 | 24.1 | 48.3 | 0.05 | 0.23 | 0.23 | 95 | 1010.4 |
| 20260501185554 | 17 | 313 | 20.9 | 48.3 | 0.03 | 0.20 | 0.20 | 94 | 1007.1 |
| 20260501185054 | 17 | 44 | 27.4 | 43.5 | 0.03 | 0.20 | 0.20 | 94 | 1004.6 |
| 20260501184612 | 17 | 69 | 27.4 | 43.5 | 0.03 | 0.20 | 0.20 | 94 | 1004.9 |
| 20260501184052 | 17 | 70 | 25.7 | 38.6 | 0.05 | 0.20 | 0.20 | 95 | 1005.1 |
| 20260501183552 | 17 | 76 | 19.3 | 35.4 | 0.05 | 0.18 | 0.18 | 95 | 1005.7 |
| 20260501183101 | 17 | 73 | 16.1 | 30.6 | 0.08 | 0.18 | 0.18 | 95 | 1006.6 |
| 20260501182555 | 17 | 82 | 11.3 | 30.6 | 0.10 | 0.18 | 0.18 | 95 | 1006.8 |
| 20260501182054 | 17 | 80 | 17.7 | 27.4 | 0.10 | 0.18 | 0.18 | 95 | 1006.7 |
| 20260501181620 | 17 | 80 | 12.9 | 20.9 | 0.13 | 0.18 | 0.18 | 95 | 1007.5 |
| 20260501181051 | 17 | 56 | 8.0 | 22.5 | 0.15 | 0.18 | 0.18 | 95 | 1008.1 |
| 20260501180551 | 17 | 54 | 12.9 | 25.7 | 0.18 | 0.18 | 0.18 | 95 | 1008.2 |
| 20260501180101 | 17 | 93 | 11.3 | 25.7 | 0.18 | 0.18 | 0.18 | 95 | 1008.5 |
| 20260501175556 | 17 | 56 | 11.3 | 25.7 | 0.18 | 0.18 | 0.18 | 95 | 1008.4 |
| 20260501175056 | 17 | 65 | 14.5 | 30.6 | 0.18 | 0.18 | 0.18 | 95 | 1008.2 |
| 20260501174553 | 17 | 51 | 17.7 | 30.6 | 0.18 | 0.18 | 0.18 | 95 | 1007.9 |
| 20260501174056 | 17 | 55 | 16.1 | 25.7 | 0.15 | 0.15 | 0.15 | 95 | 1007.9 |
| 20260501173555 | 17 | 59 | 4.8 | 30.6 | 0.13 | 0.13 | 0.13 | 95 | 1008.7 |
| 20260501173056 | 17 | 5 | 11.3 | 30.6 | 0.10 | 0.10 | 0.10 | 95 | 1009.5 |
| 20260501172555 | 17 | 320 | 12.9 | 27.4 | 0.08 | 0.08 | 0.08 | 94 | 1009.3 |
| 20260501172053 | 17 | 23 | 12.9 | 30.6 | 0.08 | 0.08 | 0.08 | 94 | 1008.9 |
| 20260501171604 | 17 | 19 | 12.9 | 30.6 | 0.05 | 0.05 | 0.05 | 94 | 1008.5 |
| 20260501171057 | 17 | 65 | 14.5 | 30.6 | 0.03 | 0.03 | 0.03 | 93 | 1008.4 |
| 20260501170552 | 17 | 44 | 11.3 | 29.0 | 0.00 | 0.00 | 0.00 | 93 | 1008.6 |
| 20260501170107 | 17 | 57 | 16.1 | 29.0 | 0.00 | 0.00 | 0.00 | 93 | 1008.8 |
| 20260501165555 | 17 | 55 | 4.8 | 30.6 | 0.00 | 0.00 | 0.00 | 93 | 1009.2 |
| 20260501165055 | 17 | 48 | 12.9 | 30.6 | 0.00 | 0.00 | 0.00 | 93 | 1009.2 |
| 20260501164600 | 17 | 59 | 9.7 | 29.0 | 0.00 | 0.00 | 0.00 | 93 | 1009.1 |
| 20260501164055 | 17 | 35 | 11.3 | 20.9 | 0.00 | 0.00 | 0.00 | 92 | 1009.4 |
| 20260501163555 | 17 | 44 | 11.3 | 24.1 | 0.00 | 0.00 | 0.00 | 92 | 1009.6 |
| 20260501163056 | 17 | 19 | 12.9 | 25.7 | 0.00 | 0.00 | 0.00 | 92 | 1009.6 |
| 20260501162555 | 17 | 29 | 11.3 | 25.7 | 0.00 | 0.00 | 0.00 | 92 | 1009.4 |
| 20260501162054 | 17 | 27 | 9.7 | 25.7 | 0.00 | 0.00 | 0.00 | 92 | 1009.6 |
| 20260501161558 | 17 | 26 | 11.3 | 27.4 | 0.00 | 0.00 | 0.00 | 92 | 1009.8 |
| 20260501161055 | 17 | 33 | 14.5 | 27.4 | 0.00 | 0.00 | 0.00 | 92 | 1010.0 |
| 20260501160555 | 17 | 42 | 11.3 | 24.1 | 0.00 | 0.00 | 0.00 | 92 | 1010.0 |
| 20260501160054 | 17 | 15 | 12.9 | 25.7 | 0.00 | 0.00 | 0.00 | 92 | 1010.1 |
| 20260501155552 | 17 | 50 | 14.5 | 25.7 | 0.00 | 0.00 | 0.00 | 92 | 1010.1 |
| 20260501155057 | 17 | 32 | 11.3 | 37.0 | 0.00 | 0.00 | 0.00 | 92 | 1010.2 |
| 20260501154600 | 17 | 37 | 17.7 | 37.0 | 0.00 | 0.00 | 0.00 | 92 | 1010.1 |
| 20260501154054 | 17 | 13 | 22.5 | 37.0 | 0.00 | 0.00 | 0.00 | 92 | 1010.2 |
| 20260501153555 | 17 | 11 | 14.5 | 29.0 | 0.00 | 0.00 | 0.00 | 92 | 1010.4 |
| 20260501153118 | 18 | 31 | 16.1 | 33.8 | 0.00 | 0.00 | 0.00 | 92 | 1010.6 |
| 20260501152555 | 18 | 13 | 12.9 | 40.2 | 0.00 | 0.00 | 0.00 | 92 | 1010.7 |
| 20260501152052 | 18 | 30 | 22.5 | 40.2 | 0.00 | 0.00 | 0.00 | 91 | 1010.8 |
| 20260501151612 | 18 | 24 | 20.9 | 32.2 | 0.00 | 0.00 | 0.00 | 92 | 1010.7 |
| 20260501151054 | 18 | 26 | 14.5 | 24.1 | 0.00 | 0.00 | 0.00 | 92 | 1010.6 |
| 20260501150556 | 18 | 53 | 8.0 | 24.1 | 0.00 | 0.00 | 0.00 | 92 | 1010.2 |
| 20260501150058 | 18 | 47 | 9.7 | 24.1 | 0.00 | 0.00 | 0.00 | 92 | 1009.8 |
| 20260501145552 | 18 | 46 | 12.9 | 24.1 | 0.00 | 0.00 | 0.00 | 92 | 1009.8 |
| 20260501145056 | 18 | 23 | 11.3 | 30.6 | 0.00 | 0.00 | 0.00 | 92 | 1009.8 |
| 20260501144602 | 18 | 9 | 9.7 | 30.6 | 0.00 | 0.00 | 0.00 | 92 | 1009.8 |
| 20260501144052 | 18 | 38 | 11.3 | 30.6 | 0.00 | 0.00 | 0.00 | 92 | 1009.6 |
| 20260501143552 | 18 | 46 | 8.0 | 29.0 | 0.00 | 0.00 | 0.00 | 92 | 1009.5 |
| 20260501143053 | 18 | 79 | 12.9 | 35.4 | 0.00 | 0.00 | 0.00 | 92 | 1009.6 |
| 20260501142557 | 18 | 29 | 17.7 | 35.4 | 0.00 | 0.00 | 0.00 | 92 | 1009.6 |
| 20260501142058 | 18 | 42 | 14.5 | 27.4 | 0.00 | 0.00 | 0.00 | 92 | 1009.7 |
| 20260501141606 | 18 | 42 | 14.5 | 22.5 | 0.00 | 0.00 | 0.00 | 93 | 1009.9 |
| 20260501141052 | 18 | 30 | 11.3 | 22.5 | 0.00 | 0.00 | 0.00 | 93 | 1009.9 |
| 20260501140552 | 18 | 53 | 9.7 | 24.1 | 0.00 | 0.00 | 0.00 | 93 | 1010.0 |
| 20260501135555 | 18 | 59 | 14.5 | 25.7 | 0.00 | 0.00 | 0.00 | 94 | 1010.1 |
| 20260501135051 | 18 | 49 | 14.5 | 25.7 | 0.00 | 0.00 | 0.00 | 94 | 1010.2 |
| 20260501134604 | 18 | 9 | 12.9 | 25.7 | 0.00 | 0.00 | 0.00 | 94 | 1010.4 |
| 20260501134054 | 18 | 23 | 14.5 | 25.7 | 0.00 | 0.00 | 0.00 | 94 | 1010.4 |
| 20260501133553 | 18 | 24 | 14.5 | 27.4 | 0.00 | 0.00 | 0.00 | 94 | 1010.6 |